Location: Demre
(36.2444°N, 29.9850°E)
Time: 06:07:25
(UTC+00:00)

Cosmos 2082 Rocket - Pass Details

Date: 11 March 2026
Orbit: 831 x 854 km, 71.0° (Epoch: 21 April)

Event Time Altitude Azimuth Distance (km) Brightness Sun altitude
Rises 16:45:35 0° 343° (NNW) 3,428 5.6 -9.2°
Reaches altitude 10° 16:48:07 10° 347° (NNW) 2,489 4.9 -9.8°
Maximum altitude 16:53:44 55° 65° (ENE) 1,017 2.3 -10.9°
Drops below altitude 10° 16:59:17 10° 143° (SE) 2,471 4.2 -12.0°
Sets 17:01:47 0° 148° (SSE) 3,401 5.0 -12.5°
Enters shadow 17:01:55 - 148° (SSE) 3,451 5.0 -12.5°
